Time,TemperatureF,DewpointF,PressureIn,WindDirection,WindDirectionDegrees,WindSpeedMPH,WindSpeedGustMPH,Humidity,HourlyPrecipIn,Conditions,Clouds,dailyrainin,SoftwareType,DateUTC
2013-01-07 00:03:00,31.0,27.0,-100.00,SW,218,2.0,10.0,82,0.00,,,-99.99,,2013-01-07 05:03:00,
2013-01-07 00:12:00,31.0,27.0,-100.00,North,350,2.0,10.0,82,0.00,,,-99.99,,2013-01-07 05:12:00,
2013-01-07 00:22:00,30.0,27.0,-100.00,West,264,1.0,10.0,82,0.00,,,-99.99,,2013-01-07 05:22:00,
2013-01-07 00:33:00,30.0,27.0,-100.00,WSW,249,4.0,10.0,82,0.00,,,-99.99,,2013-01-07 05:33:00,
2013-01-07 00:42:00,30.0,27.0,-100.00,West,264,3.0,10.0,82,0.00,,,-99.99,,2013-01-07 05:42:00,
2013-01-07 00:52:00,30.0,27.0,-100.00,WNW,286,3.0,10.0,84,0.00,,,-99.99,,2013-01-07 05:52:00,
2013-01-07 01:02:00,30.0,27.0,-100.00,West,278,4.0,10.0,84,0.00,,,-99.99,,2013-01-07 06:02:00,
2013-01-07 01:12:00,31.0,28.0,-100.00,West,273,4.0,10.0,84,0.00,,,-99.99,,2013-01-07 06:12:00,
2013-01-07 01:22:00,29.0,27.0,-100.00,NW,317,4.0,10.0,84,0.00,,,-99.99,,2013-01-07 06:22:00,
2013-01-07 01:32:00,30.0,27.0,-100.00,WNW,289,2.0,10.0,84,0.00,,,-99.99,,2013-01-07 06:32:00,
2013-01-07 01:42:00,29.0,27.0,-100.00,West,278,2.0,10.0,84,0.00,,,-99.99,,2013-01-07 06:42:00,
2013-01-07 01:52:00,29.0,27.0,-100.00,West,275,3.0,10.0,84,0.00,,,-99.99,,2013-01-07 06:52:00,
2013-01-07 02:02:00,29.0,27.0,-100.00,West,268,2.0,10.0,85,0.00,,,-99.99,,2013-01-07 07:02:00,
2013-01-07 02:12:00,29.0,27.0,-100.00,NW,306,2.0,10.0,85,0.00,,,-99.99,,2013-01-07 07:12:00,
2013-01-07 02:23:00,29.0,27.0,-100.00,West,261,2.0,10.0,85,0.00,,,-99.99,,2013-01-07 07:23:00,
2013-01-07 02:33:00,31.0,28.0,-100.00,WNW,289,2.0,10.0,88,0.00,,,-99.99,,2013-01-07 07:33:00,
2013-01-07 02:42:00,29.0,27.0,-100.00,WNW,302,3.0,10.0,85,0.00,,,-99.99,,2013-01-07 07:42:00,
2013-01-07 02:52:00,29.0,27.0,-100.00,WSW,258,2.0,10.0,85,0.00,,,-99.99,,2013-01-07 07:52:00,
2013-01-07 03:03:00,29.0,27.0,-100.00,SW,224,2.0,10.0,85,0.00,,,-99.99,,2013-01-07 08:03:00,
2013-01-07 03:12:00,29.0,27.0,-100.00,NNW,327,2.0,10.0,86,0.00,,,-99.99,,2013-01-07 08:12:00,
2013-01-07 03:22:00,29.0,27.0,-100.00,West,262,1.0,10.0,86,0.00,,,-99.99,,2013-01-07 08:22:00,
2013-01-07 03:33:00,29.0,27.0,-100.00,WNW,283,0.0,10.0,85,0.00,,,-99.99,,2013-01-07 08:33:00,
2013-01-07 03:43:00,29.0,27.0,-100.00,NW,306,1.0,10.0,86,0.00,,,-99.99,,2013-01-07 08:43:00,
2013-01-07 03:52:00,29.0,27.0,-100.00,West,275,1.0,10.0,86,0.00,,,-99.99,,2013-01-07 08:52:00,
2013-01-07 04:02:00,29.0,27.0,-100.00,SSE,151,1.0,1.0,86,0.00,,,-99.99,,2013-01-07 09:02:00,
2013-01-07 04:12:00,29.0,27.0,-100.00,NW,319,0.0,1.0,86,0.00,,,-99.99,,2013-01-07 09:12:00,
2013-01-07 04:23:00,31.0,28.0,-100.00,West,265,0.0,1.0,86,0.00,,,-99.99,,2013-01-07 09:23:00,
2013-01-07 04:32:00,29.0,27.0,-100.00,WSW,249,0.0,1.0,86,0.00,,,-99.99,,2013-01-07 09:32:00,
2013-01-07 04:42:00,29.0,27.0,-100.00,West,259,1.0,2.0,86,0.00,,,-99.99,,2013-01-07 09:42:00,
2013-01-07 04:52:00,29.0,27.0,-100.00,WNW,286,0.0,2.0,86,0.00,,,-99.99,,2013-01-07 09:52:00,
2013-01-07 05:02:00,31.0,28.0,-100.00,NW,313,1.0,2.0,88,0.00,,,-99.99,,2013-01-07 10:02:00,
2013-01-07 05:12:00,29.0,27.0,-100.00,SSW,213,0.0,2.0,86,0.00,,,-99.99,,2013-01-07 10:12:00,
2013-01-07 05:22:00,29.0,27.0,-100.00,WNW,288,0.0,2.0,86,0.00,,,-99.99,,2013-01-07 10:22:00,
2013-01-07 05:32:00,29.0,27.0,-100.00,WSW,256,1.0,2.0,88,0.00,,,-99.99,,2013-01-07 10:32:00,
2013-01-07 05:42:00,29.0,27.0,-100.00,West,271,0.0,2.0,86,0.00,,,-99.99,,2013-01-07 10:42:00,
2013-01-07 05:52:00,31.0,28.0,-100.00,NW,304,0.0,2.0,88,0.00,,,-99.99,,2013-01-07 10:52:00,
2013-01-07 06:02:00,30.0,28.0,-100.00,West,264,1.0,2.0,88,0.00,,,-99.99,,2013-01-07 11:02:00,
2013-01-07 06:12:00,29.0,27.0,-100.00,SW,220,1.0,2.0,86,0.00,,,-99.99,,2013-01-07 11:12:00,
2013-01-07 06:23:00,29.0,27.0,-100.00,WNW,283,0.0,2.0,86,0.00,,,-99.99,,2013-01-07 11:23:00,
2013-01-07 06:33:00,32.0,30.0,-100.00,SSW,199,1.0,2.0,89,0.00,,,-99.99,,2013-01-07 11:33:00,
2013-01-07 06:43:00,31.0,28.0,-100.00,West,265,0.0,2.0,88,0.00,,,-99.99,,2013-01-07 11:43:00,
2013-01-07 06:53:00,31.0,28.0,-100.00,SW,221,0.0,2.0,88,0.00,,,-99.99,,2013-01-07 11:53:00,
2013-01-07 07:03:00,29.0,27.0,-100.00,West,271,0.0,2.0,88,0.00,,,-99.99,,2013-01-07 12:03:00,
2013-01-07 07:12:00,29.0,27.0,-100.00,SW,232,0.0,2.0,88,0.00,,,-99.99,,2013-01-07 12:12:00,
2013-01-07 07:23:00,31.0,28.0,-100.00,WSW,241,1.0,2.0,88,0.00,,,-99.99,,2013-01-07 12:23:00,
2013-01-07 07:33:00,31.0,28.0,-100.00,WNW,295,1.0,2.0,88,0.00,,,-99.99,,2013-01-07 12:33:00,
2013-01-07 07:43:00,29.0,27.0,-100.00,South,180,0.0,2.0,88,0.00,,,-99.99,,2013-01-07 12:43:00,
2013-01-07 07:52:00,32.0,30.0,-100.00,WNW,288,0.0,2.0,89,0.00,,,-99.99,,2013-01-07 12:52:00,
2013-01-07 08:03:00,31.0,28.0,-100.00,WSW,251,0.0,2.0,88,0.00,,,-99.99,,2013-01-07 13:03:00,
2013-01-07 08:12:00,29.0,27.0,-100.00,West,268,0.0,2.0,88,0.00,,,-99.99,,2013-01-07 13:12:00,
2013-01-07 08:23:00,29.0,27.0,-100.00,West,278,1.0,2.0,88,0.00,,,-99.99,,2013-01-07 13:23:00,
2013-01-07 08:33:00,30.0,28.0,-100.00,West,269,0.0,2.0,88,0.00,,,-99.99,,2013-01-07 13:33:00,
2013-01-07 08:43:00,31.0,30.0,-100.00,WNW,293,0.0,2.0,89,0.00,,,-99.99,,2013-01-07 13:43:00,
2013-01-07 08:53:00,31.0,28.0,-100.00,WNW,288,1.0,2.0,89,0.00,,,-99.99,,2013-01-07 13:53:00,
2013-01-07 09:03:00,31.0,28.0,-100.00,SW,225,1.0,2.0,88,0.00,,,-99.99,,2013-01-07 14:03:00,
2013-01-07 09:13:00,29.0,27.0,-100.00,SSW,203,1.0,2.0,88,0.00,,,-99.99,,2013-01-07 14:13:00,
2013-01-07 09:23:00,29.0,27.0,-100.00,South,177,2.0,2.0,88,0.00,,,-99.99,,2013-01-07 14:23:00,
2013-01-07 09:33:00,29.0,27.0,-100.00,SW,227,1.0,2.0,86,0.00,,,-99.99,,2013-01-07 14:33:00,
2013-01-07 09:43:00,30.0,27.0,-100.00,WNW,288,0.0,2.0,85,0.00,,,-99.99,,2013-01-07 14:43:00,
2013-01-07 09:53:00,30.0,27.0,-100.00,WNW,303,0.0,2.0,86,0.00,,,-99.99,,2013-01-07 14:53:00,
2013-01-07 10:03:00,30.0,27.0,-100.00,WSW,248,1.0,2.0,86,0.00,,,-99.99,,2013-01-07 15:03:00,
2013-01-07 10:12:00,30.0,27.0,-100.00,South,182,2.0,4.0,86,0.00,,,-99.99,,2013-01-07 15:12:00,
2013-01-07 10:23:00,30.0,27.0,-100.00,WSW,241,1.0,4.0,85,0.00,,,-99.99,,2013-01-07 15:23:00,
2013-01-07 10:33:00,30.0,27.0,-100.00,WNW,296,1.0,4.0,85,0.00,,,-99.99,,2013-01-07 15:33:00,
2013-01-07 10:43:00,30.0,27.0,-100.00,SSW,197,1.0,4.0,84,0.00,,,-99.99,,2013-01-07 15:43:00,
2013-01-07 10:53:00,31.0,28.0,-100.00,WSW,256,1.0,4.0,84,0.00,,,-99.99,,2013-01-07 15:53:00,
2013-01-07 11:03:00,31.0,28.0,-100.00,WSW,256,1.0,4.0,84,0.00,,,-99.99,,2013-01-07 16:03:00,
2013-01-07 11:12:00,31.0,28.0,-100.00,West,259,0.0,4.0,84,0.00,,,-99.99,,2013-01-07 16:12:00,
2013-01-07 11:23:00,31.0,27.0,-100.00,WSW,240,1.0,4.0,82,0.00,,,-99.99,,2013-01-07 16:23:00,
2013-01-07 11:33:00,32.0,28.0,-100.00,South,189,2.0,4.0,82,0.00,,,-99.99,,2013-01-07 16:33:00,
2013-01-07 11:43:00,32.0,28.0,-100.00,SSW,208,2.0,4.0,81,0.00,,,-99.99,,2013-01-07 16:43:00,
2013-01-07 11:53:00,32.0,28.0,-100.00,West,262,1.0,4.0,80,0.00,,,-99.99,,2013-01-07 16:53:00,
2013-01-07 12:03:00,32.0,27.0,-100.00,South,190,1.0,4.0,78,0.00,,,-99.99,,2013-01-07 17:03:00,
2013-01-07 12:12:00,33.0,28.0,-100.00,South,177,1.0,4.0,77,0.00,,,-99.99,,2013-01-07 17:12:00,
2013-01-07 12:23:00,33.0,27.0,-100.00,SSW,210,1.0,4.0,76,0.00,,,-99.99,,2013-01-07 17:23:00,
2013-01-07 12:33:00,34.0,27.0,-100.00,South,180,2.0,4.0,73,0.00,,,-99.99,,2013-01-07 17:33:00,
2013-01-07 12:42:00,33.0,27.0,-100.00,SSW,194,2.0,4.0,76,0.00,,,-99.99,,2013-01-07 17:42:00,
2013-01-07 12:53:00,34.0,27.0,-100.00,South,183,2.0,4.0,75,0.00,,,-99.99,,2013-01-07 17:53:00,
2013-01-07 13:03:00,34.0,27.0,-100.00,South,182,4.0,6.0,73,0.00,,,-99.99,,2013-01-07 18:03:00,
2013-01-07 13:13:00,33.0,27.0,-100.00,SSW,213,4.0,6.0,75,0.00,,,-99.99,,2013-01-07 18:13:00,
2013-01-07 13:23:00,34.0,27.0,-100.00,South,173,3.0,6.0,69,0.00,,,-99.99,,2013-01-07 18:23:00,
2013-01-07 13:33:00,33.0,25.0,-100.00,South,187,6.0,8.0,69,0.00,,,-99.99,,2013-01-07 18:33:00,
2013-01-07 13:43:00,34.0,25.0,-100.00,SSW,196,6.0,8.0,69,0.00,,,-99.99,,2013-01-07 18:43:00,
2013-01-07 13:52:00,34.0,27.0,-100.00,SSW,197,5.0,8.0,69,0.00,,,-99.99,,2013-01-07 18:52:00,
2013-01-07 14:03:00,34.0,25.0,-100.00,SSW,201,5.0,8.0,68,0.00,,,-99.99,,2013-01-07 19:03:00,
2013-01-07 14:12:00,33.0,27.0,-100.00,South,189,6.0,8.0,71,0.00,,,-99.99,,2013-01-07 19:12:00,
2013-01-07 14:23:00,34.0,25.0,-100.00,West,271,5.0,8.0,68,0.00,,,-99.99,,2013-01-07 19:23:00,
2013-01-07 14:33:00,34.0,25.0,-100.00,SSW,213,6.0,8.0,68,0.00,,,-99.99,,2013-01-07 19:33:00,
2013-01-07 14:43:00,35.0,27.0,-100.00,South,190,4.0,8.0,67,0.00,,,-99.99,,2013-01-07 19:43:00,
2013-01-07 14:53:00,36.0,27.0,-100.00,SSW,196,4.0,8.0,64,0.00,,,-99.99,,2013-01-07 19:53:00,
2013-01-07 15:03:00,36.0,25.0,-100.00,South,187,4.0,8.0,63,0.00,,,-99.99,,2013-01-07 20:03:00,
2013-01-07 15:12:00,35.0,25.0,-100.00,SSW,194,2.0,8.0,63,0.00,,,-99.99,,2013-01-07 20:12:00,
2013-01-07 15:23:00,36.0,25.0,-100.00,South,182,3.0,8.0,64,0.00,,,-99.99,,2013-01-07 20:23:00,
2013-01-07 15:33:00,36.0,27.0,-100.00,NE,36,3.0,8.0,66,0.00,,,-99.99,,2013-01-07 20:33:00,
2013-01-07 15:43:00,36.0,25.0,-100.00,SE,142,2.0,8.0,63,0.00,,,-99.99,,2013-01-07 20:43:00,
2013-01-07 15:52:00,36.0,25.0,-100.00,South,182,3.0,8.0,63,0.00,,,-99.99,,2013-01-07 20:52:00,
2013-01-07 16:03:00,35.0,25.0,-100.00,South,183,4.0,8.0,64,0.00,,,-99.99,,2013-01-07 21:03:00,
2013-01-07 16:12:00,35.0,25.0,-100.00,SSW,192,5.0,8.0,64,0.00,,,-99.99,,2013-01-07 21:12:00,
2013-01-07 16:23:00,35.0,25.0,-100.00,South,187,4.0,8.0,66,0.00,,,-99.99,,2013-01-07 21:23:00,
2013-01-07 16:33:00,34.0,25.0,-100.00,South,190,2.0,8.0,66,0.00,,,-99.99,,2013-01-07 21:33:00,
2013-01-07 16:43:00,34.0,25.0,-100.00,South,183,3.0,8.0,67,0.00,,,-99.99,,2013-01-07 21:43:00,
2013-01-07 16:53:00,35.0,27.0,-100.00,SSW,193,6.0,8.0,67,0.00,,,-99.99,,2013-01-07 21:53:00,
2013-01-07 17:03:00,34.0,25.0,-100.00,ESE,112,4.0,8.0,67,0.00,,,-99.99,,2013-01-07 22:03:00,
2013-01-07 17:12:00,34.0,25.0,-100.00,South,190,4.0,8.0,68,0.00,,,-99.99,,2013-01-07 22:12:00,
2013-01-07 17:23:00,33.0,25.0,-100.00,South,183,6.0,8.0,68,0.00,,,-99.99,,2013-01-07 22:23:00,
2013-01-07 17:33:00,33.0,25.0,-100.00,South,183,5.0,8.0,69,0.00,,,-99.99,,2013-01-07 22:33:00,
2013-01-07 17:43:00,33.0,25.0,-100.00,South,189,6.0,8.0,71,0.00,,,-99.99,,2013-01-07 22:43:00,
2013-01-07 17:53:00,32.0,25.0,-100.00,SSW,196,5.0,8.0,72,0.00,,,-99.99,,2013-01-07 22:53:00,
2013-01-07 18:02:00,32.0,25.0,-100.00,SSW,204,4.0,8.0,72,0.00,,,-99.99,,2013-01-07 23:02:00,
2013-01-07 18:12:00,32.0,27.0,-100.00,SSW,199,4.0,8.0,75,0.00,,,-99.99,,2013-01-07 23:12:00,
2013-01-07 18:23:00,32.0,27.0,-100.00,South,186,5.0,8.0,75,0.00,,,-99.99,,2013-01-07 23:23:00,
2013-01-07 18:33:00,31.0,25.0,-100.00,SSE,155,4.0,8.0,75,0.00,,,-99.99,,2013-01-07 23:33:00,
2013-01-07 18:43:00,31.0,25.0,-100.00,SSW,194,3.0,8.0,77,0.00,,,-99.99,,2013-01-07 23:43:00,
2013-01-07 18:53:00,31.0,25.0,-100.00,South,183,3.0,8.0,77,0.00,,,-99.99,,2013-01-07 23:53:00,
2013-01-07 19:03:00,31.0,25.0,-100.00,SSW,197,2.0,8.0,77,0.00,,,-99.99,,2013-01-08 00:03:00,
2013-01-07 19:12:00,30.0,25.0,-100.00,South,180,2.0,8.0,78,0.00,,,-99.99,,2013-01-08 00:12:00,
2013-01-07 19:23:00,30.0,25.0,-100.00,SSE,168,1.0,8.0,78,0.00,,,-99.99,,2013-01-08 00:23:00,
2013-01-07 19:33:00,29.0,25.0,-100.00,SE,146,1.0,8.0,80,0.00,,,-99.99,,2013-01-08 00:33:00,
2013-01-07 19:42:00,29.0,25.0,-100.00,SE,124,0.0,8.0,81,0.00,,,-99.99,,2013-01-08 00:42:00,
2013-01-07 19:52:00,29.0,25.0,-100.00,SE,136,1.0,8.0,82,0.00,,,-99.99,,2013-01-08 00:52:00,
2013-01-07 20:03:00,28.0,25.0,-100.00,SE,139,0.0,8.0,82,0.00,,,-99.99,,2013-01-08 01:03:00,
2013-01-07 20:12:00,28.0,25.0,-100.00,South,175,1.0,8.0,85,0.00,,,-99.99,,2013-01-08 01:12:00,
2013-01-07 20:22:00,28.0,25.0,-100.00,SSE,153,1.0,8.0,84,0.00,,,-99.99,,2013-01-08 01:22:00,
2013-01-07 20:33:00,28.0,25.0,-100.00,SSE,156,1.0,8.0,84,0.00,,,-99.99,,2013-01-08 01:33:00,
2013-01-07 20:42:00,28.0,25.0,-100.00,SE,145,1.0,8.0,84,0.00,,,-99.99,,2013-01-08 01:42:00,
2013-01-07 20:52:00,28.0,25.0,-100.00,South,169,0.0,8.0,84,0.00,,,-99.99,,2013-01-08 01:52:00,
2013-01-07 21:02:00,28.0,25.0,-100.00,SE,146,1.0,8.0,84,0.00,,,-99.99,,2013-01-08 02:02:00,
2013-01-07 21:12:00,29.0,25.0,-100.00,SSW,192,0.0,8.0,85,0.00,,,-99.99,,2013-01-08 02:12:00,
2013-01-07 21:22:00,28.0,25.0,-100.00,SSE,162,1.0,8.0,84,0.00,,,-99.99,,2013-01-08 02:22:00,
2013-01-07 21:33:00,28.0,25.0,-100.00,SE,145,1.0,8.0,85,0.00,,,-99.99,,2013-01-08 02:33:00,
2013-01-07 21:42:00,29.0,27.0,-100.00,SSE,153,1.0,8.0,88,0.00,,,-99.99,,2013-01-08 02:42:00,
2013-01-07 21:53:00,29.0,27.0,-100.00,SSE,159,1.0,8.0,86,0.00,,,-99.99,,2013-01-08 02:53:00,
2013-01-07 22:03:00,29.0,27.0,-100.00,SSW,193,1.0,8.0,88,0.00,,,-99.99,,2013-01-08 03:03:00,
2013-01-07 22:12:00,29.0,27.0,-100.00,South,175,1.0,8.0,86,0.00,,,-99.99,,2013-01-08 03:12:00,
2013-01-07 22:22:00,26.0,23.0,-100.00,SSE,155,0.0,8.0,86,0.00,,,-99.99,,2013-01-08 03:22:00,
2013-01-07 22:32:00,28.0,27.0,-100.00,ESE,114,0.0,8.0,89,0.00,,,-99.99,,2013-01-08 03:32:00,
2013-01-07 22:43:00,28.0,27.0,-100.00,ESE,105,0.0,8.0,89,0.00,,,-99.99,,2013-01-08 03:43:00,
2013-01-07 22:53:00,28.0,27.0,-100.00,SSE,159,1.0,8.0,90,0.00,,,-99.99,,2013-01-08 03:53:00,
2013-01-07 23:02:00,28.0,27.0,-100.00,SSE,148,1.0,8.0,90,0.00,,,-99.99,,2013-01-08 04:02:00,
2013-01-07 23:12:00,28.0,27.0,-100.00,SSE,149,1.0,8.0,90,0.00,,,-99.99,,2013-01-08 04:12:00,
2013-01-07 23:22:00,28.0,27.0,-100.00,SSW,210,0.0,8.0,90,0.00,,,-99.99,,2013-01-08 04:22:00,
2013-01-07 23:32:00,27.0,25.0,-100.00,SE,141,1.0,8.0,90,0.00,,,-99.99,,2013-01-08 04:32:00,
2013-01-07 23:42:00,27.0,25.0,-100.00,ESE,110,0.0,8.0,90,0.00,,,-99.99,,2013-01-08 04:42:00,
2013-01-07 23:52:00,27.0,25.0,-100.00,ESE,122,0.0,8.0,91,0.00,,,-99.99,,2013-01-08 04:52:00,